Denton, TX

8:24 PM CDT on March 27, 2017 (GMT -0500)
Denton Municipal

Weather History for KDTO - July, 2013

Change the Weather History Date:

Monday, July 22, 2013

  Actual Average Record
Temperature  
Mean Temperature 86 °F -  
Max Temperature 96 °F 96 °F 102 °F (1996)
Min Temperature 75 °F 71 °F 70 °F (2007)
Cooling Degree Days 20    
Growing Degree Days 36 (Base 50)    
Moisture  
Dew Point 71 °F    
Average Humidity 64    
Maximum Humidity 91    
Minimum Humidity 38    
Precipitation  
Precipitation 0.00 in - - ()
Sea Level Pressure  
Sea Level Pressure 29.89 in    
Wind  
Wind Speed 11 mph (South)    
Max Wind Speed 18 mph    
Max Gust Speed 24 mph    
Visibility 10 miles    
Events      
Averages and records for this station are not official NWS values.
T = Trace of Precipitation, MM = Missing Value Source: NWS Daily Summary

Daily Weather History Graph

Daily Weather History Graph

Search for Another Location

Airport or City:

Trip Planner

Search our weather history database for the weather conditions in past years. The results will help you decide how hot, cold, wet, or windy it might be!

Date:

Astronomy

Jul. 22, 2013 Rise Set
Actual Time 6:35 AM CDT 8:34 PM CDT
Civil Twilight 6:07 AM CDT 9:02 PM CDT
Nautical Twilight 5:33 AM CDT 9:36 PM CDT
Astronomical Twilight 4:57 AM CDT 10:12 PM CDT
Moon 8:27 PM CDT (7/22) 6:29 AM CDT (7/22)
Length of Visible Light 14h 55m
Length of Day
13h 59m
Full, 100% of the Moon is Illuminated
Jul 22
Full
Jul 22
Full
Jul 29
Last Quarter
Aug 6
New
Aug 14
First Quarter

Hourly Weather History & Observations

Time (CDT) Temp. Heat Index Dew Point Humidity Pressure Visibility Wind Dir Wind Speed Gust Speed Precip Events Conditions
12:53 AM 81.0 °F 84.4 °F 70.0 °F 69% 29.88 in 10.0 mi South 11.5 mph - N/A   Clear
1:53 AM 79.0 °F - 71.1 °F 77% 29.88 in 10.0 mi South 11.5 mph - N/A   Clear
2:53 AM 78.1 °F - 72.0 °F 81% 29.88 in 10.0 mi South 8.1 mph - N/A   Clear
3:53 AM 78.1 °F - 73.0 °F 84% 29.88 in 10.0 mi South 6.9 mph - N/A   Clear
4:53 AM 77.0 °F - 73.0 °F 88% 29.89 in 10.0 mi South 4.6 mph - N/A   Clear
5:53 AM 75.9 °F - 73.0 °F 91% 29.89 in 10.0 mi South 4.6 mph - N/A   Clear
6:53 AM 75.9 °F - 73.0 °F 91% 29.91 in 10.0 mi South 8.1 mph - N/A   Clear
7:53 AM 78.1 °F - 73.9 °F 87% 29.91 in 10.0 mi South 11.5 mph - N/A   Clear
8:44 AM 80.6 °F 85.4 °F 73.4 °F 79% 29.96 in 10.0 mi SSW 18.4 mph 24.2 mph N/A   Mostly Cloudy
8:53 AM 81.0 °F 85.8 °F 73.0 °F 77% 29.94 in 10.0 mi SSW 15.0 mph 24.2 mph N/A   Scattered Clouds
9:53 AM 84.0 °F 90.2 °F 73.0 °F 69% 29.94 in 10.0 mi SSW 17.3 mph 21.9 mph N/A   Clear
10:53 AM 87.1 °F 94.5 °F 73.0 °F 63% 29.93 in 10.0 mi SW 15.0 mph - N/A   Clear
11:53 AM 89.1 °F 97.0 °F 73.0 °F 59% 29.93 in 10.0 mi SW 11.5 mph 21.9 mph N/A   Clear
12:53 PM 91.9 °F 99.5 °F 72.0 °F 52% 29.92 in 10.0 mi SSW 13.8 mph 23.0 mph N/A   Clear
1:53 PM 91.9 °F 98.4 °F 71.1 °F 50% 29.91 in 10.0 mi SW 15.0 mph - N/A   Partly Cloudy
2:53 PM 95.0 °F 102.5 °F 71.1 °F 46% 29.89 in 10.0 mi SSW 12.7 mph - N/A   Scattered Clouds
3:53 PM 96.1 °F 99.9 °F 66.9 °F 38% 29.87 in 10.0 mi South 10.4 mph 19.6 mph N/A   Partly Cloudy
4:53 PM 93.9 °F 98.6 °F 68.0 °F 43% 29.86 in 10.0 mi South 11.5 mph - N/A   Mostly Cloudy
5:53 PM 95.0 °F 99.0 °F 66.9 °F 40% 29.84 in 10.0 mi SSE 17.3 mph - N/A   Partly Cloudy
6:53 PM 93.9 °F 98.6 °F 68.0 °F 43% 29.83 in 10.0 mi SSE 16.1 mph 20.7 mph N/A   Clear
7:53 PM 91.9 °F 95.4 °F 66.9 °F 44% 29.83 in 10.0 mi South 11.5 mph - N/A   Clear
8:53 PM 88.0 °F 90.7 °F 66.9 °F 49% 29.84 in 10.0 mi South 8.1 mph - N/A   Clear
9:53 PM 84.9 °F 88.2 °F 68.0 °F 57% 29.86 in 10.0 mi SSE 6.9 mph - N/A   Clear
10:53 PM 84.0 °F 87.8 °F 69.1 °F 61% 29.88 in 10.0 mi SSE 6.9 mph - N/A   Clear
11:53 PM 82.0 °F 85.9 °F 70.0 °F 67% 29.90 in 10.0 mi SSE 5.8 mph - N/A   Clear